Погода в Кирсанове

Погода в Кирсанове : погода сейчас, прогноз погоды и архив. Всё, что Вы хотите узнать о погоде в Кирсанове!

Хотите узнать прогноз погоды в Кирсанове? Тогда Вам сюда: Погода в Кирсанове

Поиск расширенной информации на нашем сайте:

Другие новости

Новости СМИ2

Главная страница сайта

Новости сайта

02.10.2013

Напоминаем, что на нашем новом сайте вы можете получить высокодетализированные прогнозы погоды по пунктам России, СНГ и мира (включающие важные для авиации метеовеличины, такие как направление и скорость ветра, видимость, явления погоды, количество и форма облачности, нижняя и верхняя граница облачности), а также ознакомиться с разнообразными материалами по авиационной метеорологии и подборкой полезных ссылок на эту тему.

Сайт Метеоцентр.Азия посвящён разработке технологий оптимизации авиаметеорологического обслуживания, включая проектирование и перспективное создание нескольких автоматизированных авиаметеорологических систем:
- система выпуска высокодетальных прогностических карт явлений погоды для нижнего воздушного пространства по России и ближнему зарубежью;
- система верификации прогнозов TAF (выпускаемых синоптиками официальных АМСГ РФ и ближнего зарубежья) и AUTOTAF (выпускаемых сайтом Метеоцентр.Азия) - выявление ошибок, онлайн-сопоставление с фактической погодой METAR, автоматическое внесение коррективов в прогнозы при резком отклонении фактической погоды от прогноза, подсчёт оправдываемости прогнозов по элементам и в целом;
- система обработки, анализа и отображения авиаметеорологической информации для применения провайдерами метеорологической информации.


Погода в Кирсанове - сегодня

Время (UTC), дата Ветер
(°,м/с) 
Видим.   Явления Облачность Т
(°С)
Тd
(°С)
f(%) Тe
(°С)
Pmin
(гПа)
dP
(гПа)
Po
(мм)
O2
(г/м3)
Тmin Tmax R s Состояние
почвы
18 24.06.17 240 (ЮЗ) 10 км  {ливн. осадки}  6/6 1000 м 
[Sc]
+14 +11 82 +18  1006.8  1.1  740  282           
21 24.06.17 300 (СЗ) 10 км    4/4 1000 м 
[Sc]
+10.7 +9 89 +12  1007.9  0.8  741  286           
00 25.06.17 тихо ()   10 км    ясно 
+8.6 +7.3 92 +9  1009.3  1.8  742  288           
03 25.06.17 250 (З) 10 км    4/0 верхняя 
[Ci sp]
+11.8 +8.1 78 +13  1009.4  0.3  742  285  +7.6         
06 25.06.17 270 (З) 10 км    3/0 верхняя 
[Ci sp]
+18.6 +8.4 51 +20  1009.5  0.6  742  279           
09 25.06.17 240 (ЮЗ) 10 км    8/6 1000 м кучево-дожд., верхняя 
[Cb calv|Ci sp]
+19.8 +7.3 44 +21  1009.7  0.2  743  278           
12 25.06.17 260 (З) 10 км    6/4 1000 м кучево-дожд., средняя 
[Cb calv|Ac trans]
+22.1 +5.6 34 +22  1009.4  -0.1  743  276           
15 25.06.17 240 (ЮЗ) 10 км    6/3 1000 м средняя 
[Cu med, cong|Ac trans]
+21.8 +7.3 39 +22  1009.5  743  276    +22.6       
18 25.06.17 230 (ЮЗ) 10 км    10/0 средняя 
[Ac As]
+18.6 +11.5 63 +23  1010.6  743  278           
21 25.06.17 210 (ЮЗ) 10 км    3/0 средняя 
[Ac trans]
+16.3 +12.1 76 +22  1011.3  0.4  744  280           
00 26.06.17 220 (ЮЗ) 10 км    3/0 средняя 
[Ac trans]
+14.2 +12.2 88 +19  1011.7  0.3  744  282           
03 26.06.17 200 (Ю) 10 км    8/0 средняя 
[Ac As]
+14.2 +12.4 89 +20  1011.8  0.1  744  282  +13         
06 26.06.17 220 (ЮЗ) 10 км    8/3 1000 м кучево-дожд., средняя 
[Cb calv|Ac trans]
+21.5 +14.5 64 +30  1011.3  744  275           
09 26.06.17 220 (ЮЗ) 10 км    8/4 1000 м кучево-дожд., средняя, верхняя 
[Cb calv|Ac trans|Ci sp]
+24.9 +13.7 50 +32  1010.7  -0.4  744  272           
12 26.06.17 240 (ЮЗ) 4-11  10 км    8/6 600 м кучево-дожд., верхняя 
[Cb calv|Ci sp]
+25.8 +14.4 49 +34  1010.3  -0.3  743  271           
15 26.06.17 210 (ЮЗ) 2-10  10 км    6/3 600 м кучево-дожд., верхняя 
[Cb calv|Ci sp]
+24.6 +15.5 57 +34  1009.5  -0.8  743  271    +26.2       
18 26.06.17 190 (Ю) 10 км    3/0 верхняя 
[Ci sp]
+21.3 +14.5 65 +29  1009.2  -0.5  742  274           
21 26.06.17 190 (Ю) 10 км    10/0 средняя 
[Ac As]
+19.2 +15.3 78 +30  1008.4  -0.9  742  276           
00 27.06.17 200 (Ю) 10 км    10/3 600 м кучево-дожд., средняя 
[Cb calv|Ac As]
+19.2 +15 77 +30  1008.2  -0.2  742  276           
03 27.06.17 200 (Ю) 10 км    10/6 600 м кучево-дожд., средняя 
[Cb calv|Ac As]
+18.7 +16.4 86 +32  1008  -0.3  741  276  +18.2         
06 27.06.17 250 (З) 10 км    10/10 600 м кучево-дожд. 
[Cb calv]
+22.2 +17.2 73 +35  1008.1  0.3  742  272           
09 27.06.17 250 (З) 10 км    8/8 600 м кучево-дожд. 
[Cb calv]
+25.2 +17 60 +38  1008.7  0.9  742  270           
12 27.06.17 230 (ЮЗ) 10 км    6/4 600 м кучево-дожд., средняя 
[Cb calv|Ac trans]
+25.5 +16.8 59 +38  1008.4  -0.3  742  270           
15 27.06.17 320 (СЗ) 10 км    6/4 1000 м кучево-дожд., средняя 
[Cb calv|Ac trans]
+21.8 +15.9 69 +32  1009  0.3  742  274    +26.3       
18 27.06.17 200 (Ю) 10 км    10/10 600 м кучево-дожд. 
[Cb calv]
+19.7 +16 79 +32  1010.2  1.1  743  276           
Время (UTC), дата Ветер
(°,м/с) 
Видим.   Явления Облачность Т
(°С)
Тd
(°С)
f(%) Тe
(°С)
Pmin
(гПа)
dP
(гПа)
Po
(мм)
O2
(г/м3)
Тmin Tmax R s Состояние
почвы

Для получения пояснительной информации подведите курсор к названию столбца.

ПОГОДА в Кирсанове - архив

Всё, что Вы хотите узнать о погоде в Кирсанове - удобно и подробно!

Выберите нужную дату (начиная с 1 января 2015* года) и нажмите кнопку "Найти".
Будут отображены архивные сводки погоды по пункту Кирсанов, начиная с указанной даты.


Отображать данные в формате CSV (для использования в таблицах Excel)


Внимание! Наш архив погоды предназначен исключительно для личного некоммерческого использования в познавательных целях. Если Вам необходимы официальные справки о состоянии погоды (для производственных, юридических, коммерческих и т.п. целей), обращайтесь в органы Росгидромета.

*Примечание: данная дата относится к архиву по метеостанциям СССР (Россия, СНГ, Балтия).
Архив по метеостанциям Зарубежной Европы и Азии (кроме Китая) хранится 10 дней, по другим регионам земного шара (Китай, Африка, Америка, Австралия, Океания) - 1 день.

Кирсанов - район местоположения метеостанции


Название, широта, долгота, высота метеостанции:
Кирсанов 52.7°ш. 42.7°д. 169 м над ур. моря [Российская Федерация]

Дополнительная информация

В oтличие oт бoльшинства пoгoдных сайтoв мы публикуем пoдрoбную метеoинфoрмацию в детальнoм прoфессиoнальнoм фoрмате.

Характеристики температуры и влажнoсти вoздуха измеряются на высoте 2 м в тени вдали oт зданий и деревьев.
Скoрoсть ветра измеряется на высoте 10 м (на урoвне рoста челoвека скoрoсть ветра ниже в 1.5-2 раза). Если метеoстанция нахoдится в гoрoде или в лесу, тo скoрoсть ветра занижена на 2-4 м/с пo сравнению с oткрытым местoм. Скoрoсть ветра над акватoриями крупных рек и oзёр, а также на вершинах хoлмoв на 2-5 м/с выше, чем в oбычных услoвиях.
Атмoсфернoе давление в разных тoчках местнoсти мoжет значительнo oтличаться oт давления на метеoстанции, в зависимoсти oт услoвий рельефа (при пoдъёме на 10 м давление пoнижается примернo на 1 мм рт.ст.).